Terre Haute, IN

2:15 AM EDT on October 23, 2019 (GMT -0400)
Terre Haute International-Hulman

Weather History for KHUF - September, 2019

Change the Weather History Date:

Monday, September 23, 2019

  Actual Average Record
Temperature  
Mean Temperature 66 °F 63 °F  
Max Temperature 78 °F 76 °F 94 °F (2010)
Min Temperature 54 °F 51 °F 34 °F (1974)
Degree Days  
Heating Degree Days 0 4  
Month to date heating degree days 0 35  
Since 1 July heating degree days 0 40  
Cooling Degree Days 1 2  
Month to date cooling degree days 188 87  
Year to date cooling degree days 1216 966  
Growing Degree Days 17 (Base 50)    
Moisture  
Dew Point 63 °F    
Average Humidity 68    
Maximum Humidity 93    
Minimum Humidity 43    
Precipitation  
Precipitation 0.25 in 0.09 in 1.03 in (1955)
Month to date precipitation 0.95 2.73  
Year to date precipitation 37.75 34.01  
Sea Level Pressure  
Sea Level Pressure 29.99 in    
Wind  
Wind Speed 6 mph (WNW)    
Max Wind Speed 15 mph    
Max Gust Speed 22 mph    
Visibility 9 miles    
Events Rain    
T = Trace of Precipitation, MM = Missing Value Source: NWS Daily Summary

Daily Weather History Graph

Daily Weather History Graph

Search for Another Location

Airport or City:

Astronomy

Sep. 23, 2019 Rise Set
Actual Time 7:37 AM EDT 7:45 PM EDT
Civil Twilight 7:10 AM EDT 8:11 PM EDT
Nautical Twilight 6:39 AM EDT 8:43 PM EDT
Astronomical Twilight 6:07 AM EDT 9:14 PM EDT
Moon 1:22 AM EDT 4:36 PM EDT
Length of Visible Light 13h 00m
Length of Day
12h 07m
Waning Crescent, 33% of the Moon is Illuminated
Sep 23
Waning Crescent
Sep 28
New
Oct 5
First Quarter
Oct 13
Full
Oct 21
Last Quarter

Hourly Weather History & Observations

Time (EDT) Temp. Dew Point Humidity Pressure Visibility Wind Dir Wind Speed Gust Speed Precip Events Conditions
12:19 AM 72.0 °F 70.0 °F 93% 29.96 in 10.0 mi SSW 9.2 mph - 0.02 in Rain Light Rain
12:53 AM 71.1 °F 69.1 °F 93% 29.94 in 8.0 mi SSW 9.2 mph - 0.02 in Rain Light Rain
1:53 AM 70.0 °F 66.9 °F 90% 29.93 in 9.0 mi SSW 11.5 mph - 0.01 in   Overcast
2:49 AM 69.8 °F 66.2 °F 88% 29.93 in 10.0 mi South 9.2 mph - 0.03 in   Overcast
2:53 AM 69.1 °F 66.9 °F 93% 29.92 in 10.0 mi South 11.5 mph - 0.03 in   Overcast
3:02 AM 69.1 °F 66.9 °F 93% 29.93 in 10.0 mi South 10.4 mph - N/A   Overcast
3:44 AM 70.0 °F 68.0 °F 93% 29.93 in 10.0 mi WSW 5.8 mph - 0.00 in   Overcast
3:53 AM 70.0 °F 68.0 °F 93% 29.92 in 5.0 mi West 3.5 mph - 0.02 in Rain Rain
4:17 AM 70.0 °F 68.0 °F 93% 29.93 in 1.8 mi SW 10.4 mph 19.6 mph 0.13 in Rain Rain
4:20 AM 70.0 °F 68.0 °F 93% 29.93 in 3.0 mi WSW 9.2 mph 19.6 mph 0.13 in Rain Light Rain
4:53 AM 71.1 °F 69.1 °F 93% 29.91 in 10.0 mi SW 9.2 mph - 0.18 in   Overcast
5:53 AM 71.1 °F 69.1 °F 93% 29.92 in 10.0 mi SW 9.2 mph - 0.01 in   Overcast
6:28 AM 71.1 °F 69.1 °F 93% 29.94 in 10.0 mi WSW 8.1 mph - N/A   Overcast
6:37 AM 71.1 °F 69.1 °F 93% 29.94 in 10.0 mi West 8.1 mph - N/A   Overcast
6:53 AM 71.1 °F 69.1 °F 93% 29.94 in 10.0 mi West 4.6 mph - N/A   Mostly Cloudy
7:00 AM 71.1 °F 68.0 °F 90% 29.96 in 10.0 mi WNW 4.6 mph - N/A   Scattered Clouds
7:53 AM 69.1 °F 66.9 °F 93% 29.97 in 10.0 mi WNW 3.5 mph - N/A   Mostly Cloudy
8:25 AM 69.1 °F 66.9 °F 93% 29.99 in 10.0 mi NW 4.6 mph - N/A   Scattered Clouds
8:53 AM 70.0 °F 66.9 °F 90% 29.98 in 10.0 mi NW 5.8 mph - N/A   Mostly Cloudy
9:27 AM 71.1 °F 66.0 °F 84% 30.00 in 10.0 mi NW 8.1 mph - N/A   Mostly Cloudy
9:53 AM 70.0 °F 66.0 °F 87% 30.00 in 10.0 mi North - - N/A   Mostly Cloudy
10:53 AM 73.0 °F 64.0 °F 73% 30.02 in 10.0 mi North 11.5 mph - N/A   Mostly Cloudy
11:53 AM 71.1 °F 62.1 °F 73% 30.04 in 10.0 mi NNW 11.5 mph - N/A   Mostly Cloudy
12:53 PM 71.1 °F 59.0 °F 66% 30.05 in 10.0 mi NW 11.5 mph 20.7 mph N/A   Mostly Cloudy
1:51 PM 73.4 °F 60.8 °F 65% 30.05 in 10.0 mi NNW 8.1 mph - N/A   Clear
1:53 PM 73.9 °F 61.0 °F 64% 30.04 in 10.0 mi WNW 8.1 mph - N/A   Clear
2:53 PM 77.0 °F 57.9 °F 52% 30.03 in 10.0 mi NNW 9.2 mph - N/A   Clear
3:53 PM 75.9 °F 55.0 °F 48% 30.03 in 10.0 mi NNW 6.9 mph 16.1 mph N/A   Scattered Clouds
4:53 PM 77.0 °F 53.1 °F 43% 30.03 in 10.0 mi North 11.5 mph - N/A   Clear
5:53 PM 75.9 °F 51.1 °F 42% 30.03 in 10.0 mi North 10.4 mph - N/A   Clear
6:53 PM 73.9 °F 54.0 °F 50% 30.04 in 10.0 mi North 4.6 mph - N/A   Clear
7:53 PM 66.9 °F 55.0 °F 66% 30.03 in 10.0 mi NNW 3.5 mph - N/A   Clear
8:53 PM 60.1 °F 57.0 °F 90% 30.04 in 10.0 mi Calm Calm - N/A   Clear
9:53 PM 57.9 °F 55.9 °F 93% 30.04 in 10.0 mi Calm Calm - N/A   Clear
10:53 PM 57.0 °F 55.0 °F 93% 30.06 in 10.0 mi Calm Calm - N/A   Clear
11:53 PM 55.0 °F 54.0 °F 96% 30.06 in 10.0 mi Calm Calm - N/A   Clear